Hillsdale, MI

5:17 PM EST on November 13, 2019 (GMT -0500)
Hillsdale Municipal

Weather History for KJYM - September, 2019

Change the Weather History Date:

Sunday, September 1, 2019

  Actual Average Record
Temperature  
Mean Temperature 62 °F -  
Max Temperature 67 °F 78 °F 96 °F (1953)
Min Temperature 56 °F 54 °F 37 °F (1967)
Degree Days  
Heating Degree Days 4    
Growing Degree Days 12 (Base 50)    
Moisture  
Dew Point 58 °F    
Average Humidity 87    
Maximum Humidity 94    
Minimum Humidity 72    
Precipitation  
Precipitation 0.22 in - - ()
Sea Level Pressure  
Sea Level Pressure 30.16 in    
Wind  
Wind Speed 5 mph ()    
Max Wind Speed 8 mph    
Max Gust Speed -    
Visibility 9.7 miles    
Events Rain    
Averages and records for this station are not official NWS values.
T = Trace of Precipitation, MM = Missing Value Source: Averaged Metar Reports

Daily Weather History Graph

Daily Weather History Graph

Search for Another Location

Airport or City:

Astronomy

Sep. 01, 2019 Rise Set
Actual Time 7:03 AM EDT 8:12 PM EDT
Civil Twilight 6:35 AM EDT 8:40 PM EDT
Nautical Twilight 6:00 AM EDT 9:15 PM EDT
Astronomical Twilight 5:24 AM EDT 9:50 PM EDT
Moon 9:34 AM EDT (9/1) 9:56 PM EDT (9/1)
Length of Visible Light 14h 05m
Length of Day
13h 08m
Waxing Crescent, 8% of the Moon is Illuminated
Sep 1
Waxing Crescent
Sep 5
First Quarter
Sep 14
Full
Sep 21
Last Quarter
Sep 28
New

Hourly Weather History & Observations

Time (EDT) Temp. Dew Point Humidity Pressure Visibility Wind Dir Wind Speed Gust Speed Precip Events Conditions
12:15 AM 60.6 °F 51.4 °F 72% 30.25 in 10.0 mi East 6.9 mph - N/A   Scattered Clouds
12:35 AM 59.9 °F 51.8 °F 75% 30.26 in 10.0 mi East 5.8 mph - N/A   Scattered Clouds
12:40 AM 59.9 °F 51.8 °F 75% 30.26 in 10.0 mi East 5.8 mph - N/A   Mostly Cloudy
12:58 AM 60.3 °F 51.8 °F 74% 30.26 in 10.0 mi East 6.9 mph - N/A   Overcast
1:16 AM 60.8 °F 51.6 °F 72% 30.26 in 10.0 mi East 5.8 mph - N/A   Overcast
1:35 AM 60.3 °F 51.6 °F 73% 30.25 in 10.0 mi East 6.9 mph - N/A   Overcast
1:55 AM 60.8 °F 52.0 °F 73% 30.25 in 10.0 mi East 8.1 mph - N/A   Mostly Cloudy
2:19 AM 60.1 °F 52.9 °F 77% 30.25 in 10.0 mi East 6.9 mph - N/A   Mostly Cloudy
2:37 AM 60.1 °F 53.2 °F 78% 30.25 in 10.0 mi East 5.8 mph - N/A   Overcast
2:56 AM 59.9 °F 53.1 °F 78% 30.24 in 10.0 mi East 6.9 mph - N/A   Overcast
3:15 AM 59.2 °F 52.7 °F 79% 30.23 in 10.0 mi East 5.8 mph - N/A   Scattered Clouds
3:35 AM 59.4 °F 52.9 °F 79% 30.24 in 10.0 mi ENE 4.6 mph - N/A   Scattered Clouds
3:58 AM 59.2 °F 52.7 °F 79% 30.23 in 10.0 mi NE 4.6 mph - N/A   Overcast
4:16 AM 59.0 °F 52.9 °F 80% 30.23 in 10.0 mi ENE 6.9 mph - N/A   Overcast
4:35 AM 59.2 °F 52.9 °F 80% 30.23 in 10.0 mi ENE 5.8 mph - N/A   Overcast
4:55 AM 59.2 °F 52.7 °F 79% 30.23 in 10.0 mi NE 6.9 mph - N/A   Overcast
5:19 AM 58.3 °F 53.8 °F 85% 30.23 in 7.0 mi NE 4.6 mph - 0.01 in Rain Light Rain
5:37 AM 57.9 °F 54.5 °F 88% 30.23 in 10.0 mi Calm Calm - 0.01 in   Light Drizzle
5:55 AM 57.9 °F 54.7 °F 89% 30.22 in 10.0 mi East 4.6 mph - 0.01 in Rain Light Rain
5:56 AM 57.9 °F 54.7 °F 89% 30.22 in 10.0 mi East 4.6 mph - 0.01 in Rain Light Rain
6:15 AM 58.1 °F 54.1 °F 87% 30.22 in 10.0 mi East 3.5 mph - N/A Rain Light Rain
6:35 AM 57.4 °F 54.9 °F 91% 30.22 in 7.0 mi Calm Calm - 0.02 in Rain Rain
6:58 AM 57.2 °F 54.5 °F 91% 30.22 in 10.0 mi Calm Calm - 0.03 in Rain Rain
7:16 AM 57.2 °F 54.7 °F 91% 30.23 in 10.0 mi Calm Calm - N/A Rain Light Rain
7:35 AM 57.0 °F 54.5 °F 91% 30.22 in 7.0 mi Calm Calm - 0.02 in Rain Rain
7:55 AM 56.8 °F 54.5 °F 92% 30.22 in 7.0 mi ENE 3.5 mph - 0.05 in Rain Light Rain
8:19 AM 56.5 °F 54.7 °F 94% 30.22 in 7.0 mi East 5.8 mph - 0.02 in Rain Rain
8:37 AM 56.7 °F 55.0 °F 94% 30.21 in 5.0 mi East 6.9 mph - 0.06 in Rain Heavy Rain
8:55 AM 57.0 °F 55.4 °F 94% 30.21 in 5.0 mi East 6.9 mph - 0.11 in Rain Rain
8:56 AM 57.2 °F 55.4 °F 94% 30.21 in 5.0 mi East 8.1 mph - 0.11 in Rain Rain
9:15 AM 58.1 °F 55.9 °F 93% 30.20 in 10.0 mi East 6.9 mph - 0.02 in Rain Light Rain
9:35 AM 58.6 °F 56.8 °F 94% 30.19 in 10.0 mi East 6.9 mph - 0.02 in   Overcast
9:58 AM 59.0 °F 57.2 °F 94% 30.19 in 10.0 mi East 4.6 mph - 0.02 in   Overcast
10:16 AM 59.2 °F 57.4 °F 94% 30.20 in 10.0 mi ESE 4.6 mph - N/A   Overcast
10:35 AM 59.5 °F 57.4 °F 93% 30.19 in 10.0 mi East 8.1 mph - N/A Rain Light Rain
10:36 AM 59.4 °F 57.4 °F 93% 30.19 in 10.0 mi East 8.1 mph - N/A Rain Light Rain
10:55 AM 59.2 °F 56.8 °F 92% 30.19 in 10.0 mi East 8.1 mph - N/A Rain Light Rain
11:19 AM 59.2 °F 56.8 °F 92% 30.19 in 10.0 mi ESE 5.8 mph - N/A   Overcast
11:55 AM 60.3 °F 57.4 °F 90% 30.19 in 10.0 mi ESE 6.9 mph - N/A   Overcast
11:56 AM 60.3 °F 57.2 °F 90% 30.19 in 10.0 mi ESE 5.8 mph - N/A   Overcast
12:15 PM 61.2 °F 57.4 °F 87% 30.18 in 10.0 mi ESE 8.1 mph - N/A   Overcast
12:35 PM 62.1 °F 58.3 °F 87% 30.17 in 10.0 mi ESE 6.9 mph - N/A   Overcast
12:57 PM 62.8 °F 58.8 °F 87% 30.17 in 10.0 mi Calm Calm - N/A   Overcast
1:15 PM 62.8 °F 59.2 °F 88% 30.17 in 10.0 mi ESE 4.6 mph - N/A Rain Light Rain
1:35 PM 63.5 °F 59.2 °F 86% 30.16 in 10.0 mi ESE 5.8 mph - N/A   Overcast
1:55 PM 64.4 °F 59.7 °F 85% 30.16 in 10.0 mi SE 5.8 mph - N/A   Overcast
2:00 PM 64.8 °F 60.3 °F 85% 30.16 in 10.0 mi ESE 6.9 mph - N/A   Overcast
2:18 PM 65.1 °F 59.5 °F 82% 30.15 in 10.0 mi ESE 4.6 mph - N/A   Overcast
2:36 PM 65.5 °F 60.4 °F 84% 30.15 in 10.0 mi SE 5.8 mph - N/A   Overcast
2:55 PM 65.3 °F 60.4 °F 84% 30.13 in 10.0 mi SE 8.1 mph - N/A   Overcast
3:15 PM 65.5 °F 60.4 °F 84% 30.13 in 10.0 mi SE 5.8 mph - N/A   Overcast
3:16 PM 65.5 °F 60.6 °F 84% 30.13 in 10.0 mi SE 6.9 mph - N/A   Overcast
3:39 PM 65.3 °F 60.8 °F 85% 30.13 in 10.0 mi SE 8.1 mph - N/A   Overcast
3:57 PM 65.3 °F 61.3 °F 87% 30.12 in 10.0 mi SSE 4.6 mph - N/A   Overcast
4:15 PM 66.0 °F 61.9 °F 86% 30.10 in 10.0 mi SE 4.6 mph - N/A   Overcast
4:35 PM 66.6 °F 62.1 °F 85% 30.10 in 10.0 mi SE 3.5 mph - N/A   Overcast
4:36 PM 66.6 °F 62.4 °F 86% 30.10 in 10.0 mi SSE 3.5 mph - N/A   Overcast
4:55 PM 66.4 °F 61.7 °F 85% 30.10 in 10.0 mi ESE 4.6 mph - N/A   Overcast
5:00 PM 66.6 °F 61.7 °F 84% 30.10 in 10.0 mi ESE 3.5 mph - N/A   Overcast
5:18 PM 66.9 °F 61.9 °F 84% 30.10 in 10.0 mi SE 3.5 mph - N/A   Overcast
5:36 PM 67.1 °F 61.7 °F 83% 30.10 in 10.0 mi SSE 3.5 mph - N/A   Overcast
5:55 PM 67.1 °F 61.7 °F 83% 30.10 in 10.0 mi ESE 4.6 mph - N/A   Overcast
5:56 PM 67.1 °F 61.7 °F 83% 30.10 in 10.0 mi ESE 4.6 mph - N/A   Overcast
6:15 PM 67.1 °F 61.9 °F 83% 30.09 in 10.0 mi SE 4.6 mph - N/A   Overcast
6:39 PM 67.3 °F 62.4 °F 84% 30.09 in 10.0 mi SSE 4.6 mph - N/A   Overcast
6:57 PM 66.7 °F 62.4 °F 86% 30.08 in 10.0 mi SE 3.5 mph - N/A   Overcast
7:15 PM 66.4 °F 62.6 °F 88% 30.08 in 10.0 mi ESE 3.5 mph - N/A   Overcast
7:35 PM 65.8 °F 62.2 °F 88% 30.08 in 10.0 mi Calm Calm - N/A   Overcast
7:55 PM 65.3 °F 62.2 °F 90% 30.07 in 10.0 mi SSE 3.5 mph - N/A   Overcast
7:59 PM 65.3 °F 62.1 °F 89% 30.07 in 10.0 mi SSE 3.5 mph - N/A   Overcast
8:17 PM 65.5 °F 62.2 °F 89% 30.07 in 10.0 mi Calm Calm - N/A   Overcast
8:35 PM 65.3 °F 62.1 °F 89% 30.07 in 10.0 mi SSE 3.5 mph - N/A   Overcast
8:55 PM 64.8 °F 62.4 °F 92% 30.07 in 10.0 mi Calm Calm - N/A   Overcast
8:56 PM 64.8 °F 62.4 °F 92% 30.07 in 10.0 mi Calm Calm - N/A   Overcast
9:15 PM 64.8 °F 62.6 °F 93% 30.08 in 10.0 mi Calm Calm - N/A   Overcast
9:20 PM 64.6 °F 62.6 °F 93% 30.08 in 10.0 mi Calm Calm - N/A   Overcast
9:38 PM 64.4 °F 62.6 °F 94% 30.08 in 10.0 mi East 3.5 mph - N/A   Overcast
9:56 PM 63.9 °F 62.1 °F 94% 30.08 in 10.0 mi East 3.5 mph - N/A   Overcast
10:15 PM 63.5 °F 61.9 °F 94% 30.08 in 10.0 mi Calm Calm - N/A   Overcast
10:16 PM 63.5 °F 61.9 °F 94% 30.08 in 10.0 mi Calm Calm - N/A   Overcast
10:35 PM 63.5 °F 61.7 °F 94% 30.08 in 10.0 mi Calm Calm - N/A   Overcast
10:36 PM 63.5 °F 61.7 °F 94% 30.08 in 10.0 mi Calm Calm - N/A   Overcast
10:59 PM 63.5 °F 61.7 °F 94% 30.08 in 10.0 mi Calm Calm - N/A   Overcast
11:17 PM 63.5 °F 61.7 °F 94% 30.08 in 10.0 mi Calm Calm - N/A   Overcast
11:35 PM 63.5 °F 61.7 °F 94% 30.08 in 10.0 mi Calm Calm - N/A   Overcast
11:55 PM 63.7 °F 61.9 °F 94% 30.07 in 10.0 mi Calm Calm - N/A   Overcast
11:56 PM 63.7 °F 61.9 °F 94% 30.07 in 10.0 mi Calm Calm - N/A   Overcast